Weather in Chechulino

Russia / Novgorod Oblast     58°39′57″N   31°22′14″E
temp.,
°C
wind,
m/s
gust,
m/s
humid.,
%
clouds,
%
prec.,
mm/h
press.,
hPa
HPBL,
m
5 december, sun
sun500:00−14nne269749 0.0 1012124
03:00−14nne389576 0.0 1013233
06:00−14nne389590 0.0 1014260
09:00−14ne389490 0.1 1016317
12:00−13ne379399 0.1 1018339
15:00−14nne3794100 0.1 1019314
18:00−16nne389682 0.0 1020233
21:00−18nne379624 0.0 1022162
6 december, mon
mon600:00−18ne37975 0.0 1022150
03:00−19nne27975 0.0 1023124
06:00−20ne27985 0.0 1022116
09:00−19ne27979 0.0 1022131
12:00−15ene379475 0.0 1022214
15:00−13ene379499 0.1 1021291
18:00−12ene379599 0.2 1020271
21:00−11ene2695100 0.5 1019277
7 december, tue
tue700:00−10ene2596100 0.3 1018213
03:00−10ne2596100 0.6 1017153
06:00−9nne2496100 0.6 1015136
09:00−8n249783 1.1 1013124
12:00−7n2495100 0.3 1013167
15:00−8nnw359668 0.6 1012210
18:00−10nw259775 0.1 1013117
21:00−13nw269866 0.1 101397
8 december, wed
wed800:00−14wnw259979 0.0 101478
03:00−14wnw269871 0.1 1014106
06:00−13wnw279881 0.1 1015131
09:00−15wnw279845 0.1 1017108
12:00−13wnw279611 0.0 1018149
15:00−14w119859 0.0 101916
18:00−18wnw1110071 0.0 102110
21:00−19nw1110076 0.0 10229
9 december, thu
thu900:00−20nw1110067 0.0 102310
03:00−21nnw1110063 0.0 10249
06:00−21n2110037 0.0 102419
09:00−21n1110032 0.0 102411
12:00−15nne12955 0.0 102465
15:00−14n229734 0.0 102446
18:00−18n229954 0.0 102429
21:00−19n2210055 0.0 102430